| time (UTC) | temp C | wind direction | speed KPH | gust KPH | rain 1hr cm | rain 24hr cm | rain mn cm | humidity % | barometer mb |
| 20260508020006 | 11 | 270 | 1.6 | 3.2 | 0.00 | 0.00 | 0.00 | 67 | 1016.5 |
| 20260508014943 | 11 | 270 | 1.6 | 6.4 | 0.00 | 0.03 | 0.00 | 67 | 1016.4 |
| 20260508013941 | 11 | 270 | 1.6 | 3.2 | 0.00 | 0.03 | 0.00 | 67 | 1016.5 |
| 20260508012940 | 11 | 270 | 1.6 | 4.8 | 0.00 | 0.03 | 0.00 | 67 | 1016.5 |
| 20260508011937 | 11 | 270 | 1.6 | 4.8 | 0.00 | 0.03 | 0.00 | 67 | 1016.4 |
| 20260508010957 | 11 | 270 | 1.6 | 3.2 | 0.00 | 0.03 | 0.00 | 67 | 1016.5 |
| 20260508005933 | 11 | 270 | 1.6 | 6.4 | 0.00 | 0.03 | 0.00 | 67 | 1016.3 |
| 20260508004951 | 11 | 270 | 1.6 | 3.2 | 0.00 | 0.05 | 0.00 | 67 | 1016.4 |
| 20260508003929 | 11 | 270 | 1.6 | 3.2 | 0.00 | 0.08 | 0.00 | 67 | 1016.5 |
| 20260508002928 | 11 | 285 | 1.6 | 3.2 | 0.00 | 0.10 | 0.00 | 67 | 1016.5 |
| 20260508001925 | 11 | 270 | 1.6 | 3.2 | 0.00 | 0.13 | 0.00 | 67 | 1016.5 |
| 20260508000923 | 11 | 270 | 1.6 | 4.8 | 0.00 | 0.18 | 0.00 | 67 | 1016.4 |
| 20260507235921 | 11 | 270 | 1.6 | 4.8 | 0.00 | 0.25 | 0.00 | 67 | 1016.4 |
| 20260507234919 | 11 | 270 | 1.6 | 3.2 | 0.00 | 0.33 | 0.00 | 67 | 1016.4 |
| 20260507233919 | 11 | 270 | 1.6 | 3.2 | 0.00 | 0.38 | 0.00 | 67 | 1016.5 |
| 20260507232915 | 11 | 285 | 1.6 | 6.4 | 0.00 | 0.43 | 0.00 | 67 | 1016.4 |
| 20260507231913 | 11 | 270 | 1.6 | 4.8 | 0.00 | 0.48 | 0.00 | 67 | 1016.5 |
| 20260507230913 | 11 | 270 | 1.6 | 4.8 | 0.00 | 0.56 | 0.00 | 67 | 1016.5 |
| 20260507225909 | 11 | 270 | 1.6 | 3.2 | 0.00 | 0.64 | 0.00 | 67 | 1016.4 |
| 20260507224908 | 11 | 270 | 1.6 | 4.8 | 0.00 | 0.69 | 0.00 | 67 | 1016.5 |
| 20260507223906 | 11 | 270 | 1.6 | 4.8 | 0.00 | 0.74 | 0.00 | 66 | 1016.7 |
| 20260507222905 | 11 | 270 | 1.6 | 4.8 | 0.00 | 0.74 | 0.00 | 66 | 1016.7 |
| 20260507221901 | 11 | 270 | 1.6 | 3.2 | 0.00 | 0.81 | 0.00 | 66 | 1016.7 |
| 20260507220859 | 11 | 270 | 1.6 | 3.2 | 0.00 | 0.91 | 0.00 | 66 | 1016.5 |
| 20260507215919 | 11 | 270 | 1.6 | 3.2 | 0.00 | 0.94 | 0.94 | 66 | 1016.5 |
| 20260507214855 | 11 | 270 | 1.6 | 3.2 | 0.00 | 0.94 | 0.94 | 66 | 1016.5 |
| 20260507213853 | 11 | 270 | 1.6 | 3.2 | 0.00 | 0.97 | 0.94 | 66 | 1016.3 |
| 20260507212853 | 11 | 270 | 1.6 | 3.2 | 0.00 | 1.02 | 0.94 | 66 | 1016.3 |
| 20260507211848 | 11 | 251 | 1.6 | 3.2 | 0.00 | 1.09 | 0.94 | 66 | 1016.1 |
| 20260507210909 | 11 | 270 | 1.6 | 4.8 | 0.00 | 1.17 | 0.94 | 66 | 1016.4 |
| 20260507205845 | 11 | 270 | 1.6 | 4.8 | 0.00 | 1.22 | 0.94 | 66 | 1016.2 |
| 20260507204844 | 11 | 225 | 1.6 | 3.2 | 0.00 | 1.22 | 0.94 | 66 | 1016.0 |
| 20260507203842 | 11 | 270 | 1.6 | 4.8 | 0.00 | 1.24 | 0.94 | 66 | 1016.0 |
| 20260507202840 | 11 | 270 | 1.6 | 6.4 | 0.00 | 1.24 | 0.94 | 66 | 1015.9 |
| 20260507201843 | 11 | 270 | 1.6 | 4.8 | 0.00 | 1.24 | 0.94 | 66 | 1016.0 |
| 20260507200835 | 11 | 251 | 1.6 | 3.2 | 0.00 | 1.30 | 0.94 | 66 | 1015.5 |
| 20260507195915 | 11 | 270 | 1.6 | 6.4 | 0.00 | 1.40 | 0.94 | 66 | 1015.7 |
| 20260507194832 | 11 | 270 | 1.6 | 4.8 | 0.00 | 1.47 | 0.94 | 66 | 1015.5 |
| 20260507193829 | 11 | 270 | 1.6 | 4.8 | 0.00 | 1.60 | 0.94 | 66 | 1015.7 |
| 20260507192827 | 11 | 270 | 1.6 | 4.8 | 0.00 | 1.65 | 0.94 | 66 | 1015.2 |
| 20260507191846 | 11 | 270 | 1.6 | 4.8 | 0.00 | 1.68 | 0.94 | 66 | 1015.2 |
| 20260507190823 | 12 | 289 | 1.6 | 6.4 | 0.00 | 1.75 | 0.94 | 66 | 1015.1 |
| 20260507185824 | 12 | 270 | 1.6 | 3.2 | 0.00 | 1.88 | 0.94 | 66 | 1015.1 |
| 20260507184820 | 12 | 270 | 1.6 | 3.2 | 0.00 | 2.03 | 0.94 | 66 | 1014.8 |
| 20260507183817 | 12 | 270 | 1.6 | 3.2 | 0.00 | 2.13 | 0.94 | 66 | 1014.7 |
| 20260507182815 | 12 | 270 | 1.6 | 3.2 | 0.00 | 2.21 | 0.94 | 66 | 1014.7 |
| 20260507181813 | 12 | 240 | 1.6 | 4.8 | 0.00 | 2.29 | 0.94 | 66 | 1014.6 |
| 20260507180812 | 12 | 196 | 1.6 | 3.2 | 0.00 | 2.29 | 0.94 | 65 | 1014.3 |
| 20260507175809 | 12 | 210 | 1.6 | 3.2 | 0.00 | 2.31 | 0.94 | 65 | 1014.2 |
| 20260507174808 | 12 | 244 | 1.6 | 3.2 | 0.00 | 2.31 | 0.94 | 65 | 1014.3 |
| 20260507173805 | 12 | 270 | 1.6 | 3.2 | 0.00 | 2.31 | 0.94 | 65 | 1014.3 |
| 20260507172825 | 12 | 270 | 1.6 | 3.2 | 0.00 | 2.31 | 0.94 | 65 | 1014.0 |
| 20260507171822 | 12 | 270 | 1.6 | 3.2 | 0.00 | 2.31 | 0.94 | 65 | 1013.8 |
| 20260507170820 | 12 | 237 | 1.6 | 3.2 | 0.00 | 2.31 | 0.94 | 65 | 1013.9 |
| 20260507165819 | 12 | 221 | 1.6 | 4.8 | 0.00 | 2.31 | 0.94 | 65 | 1013.8 |
| 20260507164817 | 12 | 253 | 1.6 | 3.2 | 0.00 | 2.31 | 0.94 | 65 | 1013.5 |
| 20260507163753 | 12 | 270 | 1.6 | 3.2 | 0.00 | 2.31 | 0.94 | 65 | 1013.4 |
| 20260507162752 | 12 | 270 | 1.6 | 4.8 | 0.00 | 2.31 | 0.94 | 65 | 1013.2 |
| 20260507161749 | 12 | 270 | 1.6 | 4.8 | 0.00 | 2.31 | 0.94 | 65 | 1013.0 |
| 20260507160809 | 12 | 270 | 1.6 | 3.2 | 0.00 | 2.31 | 0.94 | 65 | 1013.1 |
| 20260507155806 | 12 | 255 | 1.6 | 6.4 | 0.00 | 2.31 | 0.94 | 65 | 1013.1 |
| 20260507154743 | 12 | 270 | 1.6 | 4.8 | 0.00 | 2.31 | 0.94 | 65 | 1012.9 |
| 20260507153803 | 12 | 255 | 1.6 | 6.4 | 0.00 | 2.31 | 0.94 | 65 | 1012.9 |
| 20260507152739 | 12 | 253 | 1.6 | 3.2 | 0.00 | 2.31 | 0.94 | 65 | 1013.0 |
| 20260507151737 | 12 | 270 | 1.6 | 3.2 | 0.00 | 2.31 | 0.94 | 65 | 1013.1 |
| 20260507150736 | 12 | 270 | 1.6 | 6.4 | 0.00 | 2.31 | 0.94 | 65 | 1012.9 |
| 20260507145734 | 12 | 270 | 1.6 | 6.4 | 0.00 | 2.31 | 0.94 | 65 | 1012.8 |
| 20260507144732 | 13 | 244 | 1.6 | 4.8 | 0.00 | 2.31 | 0.94 | 65 | 1012.6 |
| 20260507143729 | 13 | 203 | 1.6 | 6.4 | 0.00 | 2.31 | 0.94 | 65 | 1012.8 |
| 20260507142727 | 13 | 270 | 1.6 | 6.4 | 0.00 | 2.31 | 0.94 | 65 | 1012.8 |
| 20260507141725 | 13 | 270 | 1.6 | 3.2 | 0.00 | 2.31 | 0.94 | 65 | 1012.7 |
| 20260507140723 | 13 | 270 | 1.6 | 4.8 | 0.00 | 2.31 | 0.94 | 65 | 1012.7 |
| 20260507135743 | 13 | 234 | 1.6 | 3.2 | 0.00 | 2.31 | 0.94 | 65 | 1012.8 |
| 20260507134740 | 13 | 285 | 1.6 | 6.4 | 0.00 | 2.31 | 0.94 | 65 | 1012.6 |
| 20260507133717 | 13 | 270 | 1.6 | 3.2 | 0.00 | 2.31 | 0.94 | 65 | 1012.7 |
| 20260507132716 | 13 | 286 | 1.6 | 6.4 | 0.00 | 2.31 | 0.94 | 65 | 1012.7 |
| 20260507131734 | 13 | 253 | 1.6 | 3.2 | 0.00 | 2.31 | 0.94 | 65 | 1012.6 |
| 20260507130732 | 13 | 225 | 1.6 | 8.0 | 0.00 | 2.31 | 0.94 | 65 | 1012.5 |
| 20260507125709 | 13 | 225 | 1.6 | 4.8 | 0.00 | 2.31 | 0.94 | 65 | 1012.7 |
| 20260507124708 | 13 | 229 | 1.6 | 6.4 | 0.00 | 2.31 | 0.94 | 64 | 1012.4 |
| 20260507123705 | 13 | 220 | 1.6 | 6.4 | 0.00 | 2.31 | 0.94 | 65 | 1012.5 |
| 20260507122706 | 13 | 255 | 1.6 | 3.2 | 0.00 | 2.31 | 0.94 | 65 | 1012.1 |
| 20260507121700 | 13 | 270 | 1.6 | 4.8 | 0.00 | 2.31 | 0.94 | 64 | 1012.1 |
| 20260507120659 | 12 | 270 | 1.6 | 3.2 | 0.00 | 2.31 | 0.94 | 64 | 1012.2 |
| 20260507115657 | 12 | 270 | 1.6 | 4.8 | 0.00 | 2.31 | 0.94 | 64 | 1012.0 |
| 20260507114656 | 12 | 270 | 1.6 | 3.2 | 0.00 | 2.31 | 0.94 | 64 | 1012.0 |
| 20260507113653 | 12 | 270 | 1.6 | 3.2 | 0.00 | 2.31 | 0.94 | 64 | 1012.0 |
| 20260507112651 | 12 | 270 | 1.6 | 3.2 | 0.00 | 2.31 | 0.94 | 64 | 1012.0 |
| 20260507111709 | 12 | 270 | 1.6 | 4.8 | 0.00 | 2.31 | 0.94 | 64 | 1011.9 |
| 20260507110647 | 12 | 240 | 1.6 | 6.4 | 0.00 | 2.31 | 0.94 | 64 | 1011.6 |
| 20260507105645 | 12 | 270 | 1.6 | 6.4 | 0.00 | 2.31 | 0.94 | 64 | 1011.5 |
| 20260507104643 | 12 | 270 | 1.6 | 4.8 | 0.00 | 2.31 | 0.94 | 64 | 1011.7 |
| 20260507103642 | 12 | 270 | 1.6 | 3.2 | 0.00 | 2.31 | 0.94 | 64 | 1011.6 |
| 20260507102641 | 12 | 225 | 1.6 | 3.2 | 0.00 | 2.31 | 0.94 | 64 | 1011.4 |
| 20260507101657 | 12 | 270 | 1.6 | 4.8 | 0.00 | 2.31 | 0.94 | 64 | 1011.4 |
| 20260507100636 | 12 | 233 | 1.6 | 3.2 | 0.00 | 2.31 | 0.94 | 64 | 1011.2 |
| 20260507095653 | 12 | 270 | 1.6 | 3.2 | 0.00 | 2.31 | 0.94 | 64 | 1011.1 |
| 20260507094632 | 12 | 270 | 1.6 | 3.2 | 0.00 | 2.31 | 0.94 | 64 | 1011.1 |
| 20260507093630 | 12 | 315 | 1.6 | 3.2 | 0.00 | 2.31 | 0.94 | 64 | 1010.9 |
| 20260507092627 | 12 | 290 | 1.6 | 4.8 | 0.00 | 2.31 | 0.94 | 63 | 1010.8 |
| 20260507091625 | 12 | 295 | 3.2 | 6.4 | 0.00 | 2.31 | 0.94 | 63 | 1010.7 |
| 20260507090623 | 12 | 292 | 1.6 | 3.2 | 0.00 | 2.31 | 0.94 | 63 | 1010.6 |
| 20260507085622 | 12 | 270 | 1.6 | 6.4 | 0.00 | 2.31 | 0.94 | 63 | 1010.5 |
| 20260507084620 | 12 | 325 | 1.6 | 3.2 | 0.00 | 2.31 | 0.94 | 63 | 1010.5 |
| 20260507083618 | 12 | 270 | 1.6 | 3.2 | 0.00 | 2.31 | 0.94 | 63 | 1010.1 |
| 20260507082616 | 12 | 270 | 1.6 | 3.2 | 0.00 | 2.31 | 0.94 | 63 | 1010.2 |
| 20260507081613 | 12 | 270 | 1.6 | 3.2 | 0.00 | 2.31 | 0.94 | 63 | 1010.0 |
| 20260507080612 | 12 | 270 | 1.6 | 1.6 | 0.00 | 2.31 | 0.94 | 63 | 1009.9 |
| 20260507075659 | 12 | 307 | 1.6 | 1.6 | 0.00 | 2.31 | 0.94 | 63 | 1009.8 |
| 20260507074608 | 12 | 270 | 1.6 | 3.2 | 0.00 | 2.31 | 0.94 | 63 | 1009.8 |
| 20260507073605 | 12 | 315 | 1.6 | 3.2 | 0.00 | 2.31 | 0.94 | 63 | 1009.8 |
| 20260507072604 | 12 | 225 | 1.6 | 4.8 | 0.00 | 2.31 | 0.94 | 63 | 1009.8 |
| 20260507071643 | 12 | 270 | 1.6 | 1.6 | 0.00 | 2.31 | 0.94 | 63 | 1009.7 |
| 20260507070641 | 12 | 270 | 1.6 | 3.2 | 0.00 | 2.31 | 0.94 | 63 | 1009.4 |
| 20260507065559 | 12 | 191 | 1.6 | 3.2 | 0.00 | 2.31 | 0.94 | 63 | 1009.3 |
| 20260507064554 | 12 | 270 | 1.6 | 4.8 | 0.00 | 2.31 | 0.94 | 63 | 1009.2 |
| 20260507063553 | 12 | 186 | 1.6 | 6.4 | 0.00 | 2.31 | 0.94 | 63 | 1009.1 |
| 20260507062553 | 12 | 199 | 1.6 | 6.4 | 0.00 | 2.31 | 0.94 | 63 | 1009.0 |
| 20260507061550 | 12 | 178 | 3.2 | 8.0 | 0.00 | 2.31 | 0.94 | 62 | 1008.9 |
| 20260507060608 | 12 | 181 | 3.2 | 6.4 | 0.00 | 2.31 | 0.94 | 62 | 1008.8 |
| 20260507055547 | 12 | 182 | 3.2 | 9.7 | 0.00 | 2.31 | 0.94 | 62 | 1008.6 |
| 20260507054544 | 12 | 208 | 1.6 | 6.4 | 0.00 | 2.31 | 0.94 | 62 | 1008.5 |
| 20260507053541 | 12 | 187 | 3.2 | 8.0 | 0.00 | 2.31 | 0.91 | 62 | 1008.5 |
| 20260507052600 | 12 | 188 | 3.2 | 8.0 | 0.00 | 2.31 | 0.91 | 62 | 1008.4 |
| 20260507051537 | 12 | 219 | 3.2 | 6.4 | 0.00 | 2.31 | 0.91 | 62 | 1008.4 |
| 20260507050535 | 12 | 222 | 1.6 | 6.4 | 0.00 | 2.31 | 0.91 | 62 | 1008.3 |
| 20260507045533 | 12 | 225 | 1.6 | 3.2 | 0.00 | 2.31 | 0.91 | 62 | 1008.2 |
| 20260507044532 | 12 | 225 | 1.6 | 4.8 | 0.00 | 2.31 | 0.91 | 62 | 1008.1 |
| 20260507043530 | 13 | 210 | 3.2 | 4.8 | 0.00 | 2.34 | 0.91 | 62 | 1007.9 |
| 20260507042547 | 13 | 233 | 1.6 | 6.4 | 0.00 | 2.34 | 0.91 | 62 | 1007.8 |
| 20260507041526 | 13 | 235 | 1.6 | 3.2 | 0.00 | 2.34 | 0.91 | 62 | 1007.7 |
| 20260507040523 | 13 | 239 | 1.6 | 4.8 | 0.00 | 2.34 | 0.91 | 62 | 1007.7 |
| 20260507035523 | 13 | 214 | 3.2 | 6.4 | 0.00 | 2.34 | 0.91 | 62 | 1007.7 |
| 20260507034520 | 13 | 216 | 1.6 | 6.4 | 0.00 | 2.34 | 0.91 | 62 | 1007.6 |
| 20260507033517 | 13 | 239 | 1.6 | 6.4 | 0.00 | 2.34 | 0.91 | 61 | 1007.6 |
| 20260507032516 | 13 | 236 | 1.6 | 4.8 | 0.00 | 2.34 | 0.91 | 61 | 1007.6 |
| 20260507031515 | 13 | 223 | 3.2 | 4.8 | 0.00 | 2.34 | 0.91 | 61 | 1007.2 |
| 20260507030512 | 13 | 218 | 1.6 | 4.8 | 0.00 | 2.34 | 0.91 | 61 | 1007.1 |
| 20260507025529 | 13 | 208 | 3.2 | 6.4 | 0.00 | 2.34 | 0.91 | 61 | 1007.2 |
| 20260507024509 | 14 | 216 | 3.2 | 6.4 | 0.00 | 2.34 | 0.91 | 61 | 1007.1 |
| 20260507023526 | 14 | 209 | 1.6 | 4.8 | 0.00 | 2.34 | 0.91 | 61 | 1006.8 |
| 20260507022504 | 14 | 225 | 1.6 | 3.2 | 0.00 | 2.34 | 0.91 | 61 | 1006.9 |
| 20260507021020 | 14 | 184 | 1.6 | 6.4 | 0.00 | 2.34 | 0.91 | 61 | 1006.4 |